EW3330 Weather Reports


time (UTC)temp
C
wind
direction
speed
KPH
gust
KPH
rain 1hr
cm
rain 24hr
cm
rain mn
cm
humidity
%
barometer
mb
20260506123040 18 154 1.6 9.7 0.00 0.00 0.00 74 1007.3
20260506121539 18 194 1.6 16.1 0.00 0.00 0.00 75 1007.5
20260506120041 18 173 3.2 9.7 0.00 0.00 0.00 74 1007.7
20260506114537 18 125 4.8 17.7 0.00 0.00 0.00 75 1007.9
20260506113042 18 157 6.4 19.3 0.00 0.00 0.00 75 1007.7
20260506111536 17 152 4.8 16.1 0.00 0.00 0.00 75 1007.7
20260506110036 17 146 0.0 17.7 0.00 0.00 0.00 76 1007.6
20260506104535 17 162 1.6 9.7 0.00 0.00 0.00 77 1007.5
20260506103033 17 187 3.2 14.5 0.00 0.00 0.00 77 1007.6
20260506101533 17 124 1.6 14.5 0.00 0.00 0.00 77 1007.5
20260506100037 17 152 3.2 14.5 0.00 0.00 0.00 77 1007.2
20260506094532 17 164 1.6 14.5 0.00 0.00 0.00 78 1007.4
20260506093031 17 165 3.2 19.3 0.00 0.00 0.00 78 1007.4
20260506091530 17 161 0.0 14.5 0.00 0.00 0.00 78 1007.3
20260506090029 17 152 1.6 12.9 0.00 0.00 0.00 77 1007.4
20260506084524 17 165 0.0 8.0 0.00 0.00 0.00 77 1007.6
20260506083023 17 138 0.0 9.7 0.00 0.00 0.00 76 1007.6
20260506081521 17 158 0.0 8.0 0.00 0.00 0.00 75 1007.7
20260506073019 18 179 0.0 11.3 0.00 0.00 0.00 72 1007.8
20260506071515 18 125 1.6 8.0 0.00 0.00 0.00 71 1007.7
20260506061510 18 170 1.6 9.7 0.00 0.00 0.00 68 1007.9
20260506050108 19 125 1.6 6.4 0.00 0.00 0.00 63 1008.5
20260506044558 19 151 0.0 9.7 0.00 0.00 0.00 63 1008.5
20260506043100 20 183 3.2 12.9 0.00 0.00 0.00 62 1008.5
20260506041556 20 173 3.2 12.9 0.00 0.00 0.00 61 1008.4
20260506040052 20 130 3.2 17.7 0.00 0.00 0.00 60 1008.4
20260506034603 20 189 1.6 11.3 0.00 0.00 0.00 60 1008.4
20260506033051 20 153 1.6 9.7 0.00 0.00 0.00 59 1008.4
20260506031551 21 185 1.6 14.5 0.00 0.00 0.00 57 1008.3
20260506030050 21 157 4.8 19.3 0.00 0.00 0.00 54 1008.2
20260506024606 21 175 6.4 22.5 0.00 0.00 0.00 53 1008.1
20260506023048 22 152 6.4 24.1 0.00 0.00 0.00 51 1008.2
20260506021551 22 166 4.8 19.3 0.00 0.00 0.00 49 1008.1
20260506020048 22 112 4.8 17.7 0.00 0.00 0.00 47 1008.0
20260506014550 22 130 3.2 12.9 0.00 0.00 0.00 46 1007.9
20260506013101 22 129 3.2 14.5 0.00 0.00 0.00 45 1007.7
20260506011556 23 158 3.2 17.7 0.00 0.00 0.00 45 1007.5
20260506010046 23 160 0.0 12.9 0.00 0.00 0.00 44 1007.5
20260506004545 23 161 1.6 11.3 0.00 0.00 0.00 42 1007.3
20260506003045 23 122 0.0 9.7 0.00 0.00 0.00 40 1007.1
20260506001546 24 171 1.6 19.3 0.00 0.00 0.00 40 1006.8
20260506000043 25 150 4.8 22.5 0.00 0.00 0.00 38 1006.7
20260505234542 25 160 3.2 19.3 0.00 0.00 0.00 36 1006.7
20260505233040 25 94 1.6 9.7 0.00 0.00 0.00 35 1006.7
20260505231541 25 154 4.8 16.1 0.00 0.00 0.00 33 1006.5
20260505230051 26 162 9.7 20.9 0.00 0.00 0.00 32 1006.3
20260505224539 26 185 8.0 19.3 0.00 0.00 0.00 32 1006.2
20260505223052 26 143 6.4 16.1 0.00 0.00 0.00 32 1006.0
20260505221537 26 73 4.8 19.3 0.00 0.00 0.00 32 1006.0
20260505220042 27 113 6.4 19.3 0.00 0.00 0.00 30 1005.8
20260505214536 26 118 4.8 19.3 0.00 0.00 0.00 29 1005.9
20260505213137 26 175 3.2 25.7 0.00 0.00 0.00 30 1005.7
20260505211533 27 126 6.4 33.8 0.00 0.00 0.00 31 1005.4
20260505210032 27 121 14.5 29.0 0.00 0.00 0.00 30 1005.4
20260505204530 27 202 4.8 24.1 0.00 0.00 0.00 32 1005.4
20260505203042 27 133 4.8 27.4 0.00 0.00 0.00 32 1005.5
20260505201528 27 140 8.0 35.4 0.00 0.00 0.00 31 1005.6
20260505200034 27 147 11.3 30.6 0.00 0.00 0.00 30 1005.6
20260505194525 27 147 3.2 25.7 0.00 0.00 0.00 32 1005.5
20260505193023 27 135 11.3 29.0 0.00 0.00 0.00 33 1005.9
20260505191521 27 132 11.3 32.2 0.00 0.00 0.00 32 1006.1
20260505190024 27 176 9.7 22.5 0.00 0.00 0.00 33 1006.2
20260505184522 27 117 9.7 25.7 0.00 0.00 0.00 34 1006.4
20260505183014 27 182 8.0 35.4 0.00 0.00 0.00 34 1006.8
20260505181512 27 167 9.7 20.9 0.00 0.00 0.00 37 1006.8
20260505180011 27 189 9.7 27.4 0.00 0.00 0.00 38 1006.9
20260505174514 26 111 4.8 29.0 0.00 0.00 0.00 38 1007.0
20260505173025 27 131 3.2 17.7 0.00 0.00 0.00 40 1007.1
20260505171505 26 123 4.8 20.9 0.00 0.00 0.00 40 1007.5
20260505170002 26 153 8.0 24.1 0.00 0.00 0.00 40 1007.6
20260505164605 26 146 6.4 16.1 0.00 0.00 0.00 43 1007.8
20260505163102 25 133 6.4 14.5 0.00 0.00 0.00 44 1008.0
20260505161554 25 161 4.8 22.5 0.00 0.00 0.00 45 1008.2
20260505153104 23 123 6.4 19.3 0.00 0.00 0.00 49 1008.8
20260505151553 22 146 8.0 19.3 0.00 0.00 0.00 49 1008.9
20260505124510 16 152 3.2 9.7 0.00 0.00 0.00 70 1009.0